Abingdon, VA

7:07 PM EDT on August 20, 2017 (GMT -0400)
Virginia Highlands

Weather History for KVJI - March, 2014

Change the Weather History Date:

Friday, March 21, 2014

  Actual Average (KTRI) Record (KTRI)
Temperature  
Mean Temperature 48 °F -  
Max Temperature 66 °F 59 °F 80 °F (1968)
Min Temperature 31 °F 36 °F 12 °F (1965)
Degree Days  
Heating Degree Days 16    
Moisture  
Dew Point 20 °F    
Average Humidity 39    
Maximum Humidity 69    
Minimum Humidity 10    
Precipitation  
Precipitation 0.00 in - - ()
Sea Level Pressure  
Sea Level Pressure 30.07 in    
Wind  
Wind Speed 2 mph (WNW)    
Max Wind Speed 15 mph    
Max Gust Speed 20 mph    
Visibility 10 miles    
Events      
Averages and records for this station are not official NWS values.
T = Trace of Precipitation, MM = Missing Value Source: NWS Daily Summary

Daily Weather History Graph

Daily Weather History Graph

Search for Another Location

Airport or City:

Trip Planner

Search our weather history database for the weather conditions in past years. The results will help you decide how hot, cold, wet, or windy it might be!

Date:

Astronomy

Mar. 21, 2014 Rise Set
Actual Time 7:30 AM EDT 7:40 PM EDT
Civil Twilight 7:04 AM EDT 8:06 PM EDT
Nautical Twilight 6:34 AM EDT 8:36 PM EDT
Astronomical Twilight 6:03 AM EDT 9:07 PM EDT
Moon No Moon Rise 10:28 AM EDT (3/21)
Length of Visible Light 13h 02m
Length of Day
12h 10m
Waning Gibbous, 75% of the Moon is Illuminated
Mar 21
Waning Gibbous
Mar 23
Last Quarter
Mar 30
New
Apr 7
First Quarter
Apr 15
Full

Hourly Weather History & Observations

Time (EDT) Temp. Windchill Dew Point Humidity Pressure Visibility Wind Dir Wind Speed Gust Speed Precip Events Conditions
12:15 AM 37.8 °F - 22.8 °F 55% 30.10 in 10.0 mi Calm Calm - N/A   Clear
12:35 AM 37.6 °F - 22.6 °F 55% 30.10 in 10.0 mi Calm Calm - N/A   Clear
12:55 AM 36.1 °F - 23.5 °F 60% 30.10 in 10.0 mi Calm Calm - N/A   Clear
1:15 AM 35.8 °F - 22.6 °F 59% 30.10 in 10.0 mi Calm Calm - N/A   Clear
1:35 AM 37.0 °F - 22.5 °F 56% 30.09 in 10.0 mi Calm Calm - N/A   Clear
1:55 AM 36.0 °F - 22.8 °F 59% 30.09 in 10.0 mi Calm Calm - N/A   Clear
2:15 AM 34.7 °F - 22.8 °F 62% 30.09 in 10.0 mi Calm Calm - N/A   Clear
2:35 AM 34.9 °F - 23.0 °F 62% 30.09 in 10.0 mi Calm Calm - N/A   Clear
2:55 AM 33.8 °F - 23.2 °F 65% 30.09 in 10.0 mi Calm Calm - N/A   Clear
3:15 AM 34.0 °F - 22.8 °F 64% 30.09 in 10.0 mi Calm Calm - N/A   Clear
3:35 AM 32.4 °F - 23.0 °F 68% 30.09 in 10.0 mi Calm Calm - N/A   Clear
3:55 AM 32.7 °F - 23.4 °F 68% 30.09 in 10.0 mi Calm Calm - N/A   Clear
4:15 AM 33.1 °F - 23.4 °F 67% 30.08 in 10.0 mi Calm Calm - N/A   Clear
4:35 AM 34.0 °F - 22.8 °F 64% 30.09 in 10.0 mi Calm Calm - N/A   Clear
4:55 AM 33.8 °F - 22.8 °F 64% 30.09 in 10.0 mi Calm Calm - N/A   Clear
5:15 AM 33.1 °F - 22.8 °F 66% 30.10 in 10.0 mi Calm Calm - N/A   Clear
5:35 AM 34.9 °F - 22.1 °F 60% 30.11 in 10.0 mi Calm Calm - N/A   Clear
5:55 AM 33.8 °F - 21.9 °F 62% 30.11 in 10.0 mi Calm Calm - N/A   Clear
6:15 AM 32.4 °F - 22.6 °F 67% 30.11 in 10.0 mi Calm Calm - N/A   Clear
6:35 AM 32.7 °F - 22.8 °F 67% 30.10 in 10.0 mi Calm Calm - N/A   Clear
6:55 AM 32.5 °F - 22.3 °F 66% 30.11 in 10.0 mi Calm Calm - N/A   Clear
7:15 AM 32.4 °F - 21.9 °F 65% 30.11 in 10.0 mi Calm Calm - N/A   Clear
7:35 AM 32.0 °F - 22.1 °F 67% 30.11 in 10.0 mi Calm Calm - N/A   Clear
7:55 AM 31.8 °F - 22.8 °F 69% 30.11 in 10.0 mi Calm Calm - N/A   Clear
8:15 AM 32.0 °F - 23.0 °F 69% 30.12 in 10.0 mi Calm Calm - N/A   Clear
8:35 AM 35.1 °F - 21.6 °F 58% 30.12 in 10.0 mi Calm Calm - N/A   Clear
8:55 AM 38.1 °F - 22.3 °F 53% 30.13 in 10.0 mi Calm Calm - N/A   Clear
9:15 AM 41.7 °F - 23.2 °F 48% 30.12 in 10.0 mi Calm Calm - N/A   Clear
9:35 AM 44.8 °F 43.3 °F 23.0 °F 42% 30.13 in 10.0 mi West 3.5 mph - N/A   Clear
9:55 AM 46.8 °F - 23.0 °F 39% 30.13 in 10.0 mi West 5.8 mph - N/A   Clear
10:15 AM 49.1 °F - 23.0 °F 36% 30.14 in 10.0 mi West 5.8 mph - N/A   Clear
10:35 AM 50.4 °F - 20.3 °F 31% 30.15 in 10.0 mi WNW 11.5 mph - N/A   Clear
10:55 AM 52.2 °F - 22.5 °F 31% 30.15 in 10.0 mi West 10.4 mph - N/A   Clear
11:15 AM 53.1 °F - 21.7 °F 29% 30.15 in 10.0 mi West 10.4 mph - N/A   Clear
11:35 AM 54.5 °F - 21.0 °F 27% 30.15 in 10.0 mi WNW 8.1 mph - N/A   Clear
11:55 AM 55.8 °F - 21.6 °F 27% 30.14 in 10.0 mi West 9.2 mph - N/A   Clear
12:15 PM 56.5 °F - 20.7 °F 25% 30.13 in 10.0 mi West 9.2 mph - N/A   Clear
12:35 PM 57.7 °F - 20.3 °F 23% 30.12 in 10.0 mi WNW 9.2 mph - N/A   Clear
12:55 PM 58.6 °F - 20.3 °F 23% 30.11 in 10.0 mi West 8.1 mph - N/A   Clear
1:15 PM 59.4 °F - 21.0 °F 23% 30.11 in 10.0 mi WSW 10.4 mph - N/A   Clear
1:35 PM 60.8 °F - 21.2 °F 22% 30.11 in 10.0 mi WNW 4.6 mph 11.5 mph N/A   Clear
1:55 PM 61.5 °F - 19.8 °F 20% 30.09 in 10.0 mi WNW 10.4 mph - N/A   Clear
2:15 PM 62.4 °F - 19.4 °F 19% 30.07 in 10.0 mi West 5.8 mph - N/A   Clear
2:35 PM 63.5 °F - 17.8 °F 17% 30.06 in 10.0 mi West 9.2 mph - N/A   Clear
2:55 PM 63.9 °F - 16.3 °F 16% 30.05 in 10.0 mi West 9.2 mph - N/A   Clear
3:15 PM 64.9 °F - 15.4 °F 15% 30.04 in 10.0 mi West 13.8 mph 18.4 mph N/A   Clear
3:35 PM 65.7 °F - 15.8 °F 15% 30.03 in 10.0 mi West 11.5 mph 19.6 mph N/A   Clear
3:55 PM 66.4 °F - 16.2 °F 14% 30.02 in 10.0 mi West 11.5 mph - N/A   Clear
4:15 PM 65.5 °F - 14.5 °F 14% 30.02 in 10.0 mi West 12.7 mph 19.6 mph N/A   Clear
4:35 PM 65.8 °F - 13.8 °F 13% 30.01 in 10.0 mi West 11.5 mph 18.4 mph N/A   Clear
4:55 PM 66.6 °F - 12.0 °F 12% 30.01 in 10.0 mi WNW 15.0 mph 19.6 mph N/A   Clear
5:15 PM 66.4 °F - 8.2 °F 10% 30.00 in 10.0 mi West 12.7 mph 17.3 mph N/A   Clear
5:35 PM 66.0 °F - 11.1 °F 12% 29.99 in 10.0 mi NW 9.2 mph - N/A   Clear
5:55 PM 65.3 °F - 10.8 °F 12% 29.99 in 10.0 mi West 6.9 mph - N/A   Clear
6:15 PM 64.6 °F - 11.1 °F 12% 29.99 in 10.0 mi NW 4.6 mph - N/A   Clear
6:35 PM 63.9 °F - 12.6 °F 14% 29.99 in 10.0 mi WNW 6.9 mph - N/A   Clear
6:55 PM 63.5 °F - 13.8 °F 14% 29.99 in 10.0 mi WNW 3.5 mph - N/A   Clear
7:15 PM 61.7 °F - 15.6 °F 17% 29.99 in 10.0 mi WNW 3.5 mph - N/A   Clear
7:35 PM 60.8 °F - 15.1 °F 17% 29.99 in 10.0 mi NW 3.5 mph - N/A   Clear
7:55 PM 58.6 °F - 17.4 °F 20% 29.99 in 10.0 mi WNW 3.5 mph - N/A   Clear
8:15 PM 57.6 °F - 17.2 °F 21% 29.99 in 10.0 mi Calm Calm - N/A   Clear
8:35 PM 55.6 °F - 21.0 °F 26% 29.99 in 10.0 mi Calm Calm - N/A   Clear
8:55 PM 53.1 °F - 22.8 °F 31% 30.00 in 10.0 mi Calm Calm - N/A   Clear
9:15 PM 52.9 °F - 20.3 °F 28% 30.00 in 10.0 mi Calm Calm - N/A   Clear
9:35 PM 50.4 °F - 25.5 °F 38% 30.01 in 10.0 mi Calm Calm - N/A   Clear
9:55 PM 49.6 °F - 25.0 °F 38% 30.01 in 10.0 mi Calm Calm - N/A   Clear
10:15 PM 50.0 °F - 23.4 °F 35% 30.01 in 10.0 mi Calm Calm - N/A   Clear
10:35 PM 49.1 °F - 24.1 °F 38% 30.01 in 10.0 mi Calm Calm - N/A   Clear
10:55 PM 49.3 °F - 24.3 °F 38% 30.01 in 10.0 mi Calm Calm - N/A   Clear
11:15 PM 48.6 °F - 25.0 °F 40% 30.00 in 10.0 mi Calm Calm - N/A   Clear
11:35 PM 48.2 °F - 25.2 °F 41% 30.01 in 10.0 mi Calm Calm - N/A   Clear
11:55 PM 46.6 °F - 26.4 °F 45% 30.01 in 10.0 mi Calm Calm - N/A   Clear